Regional Weather Roundup
Issued by NWS

Home | Current Version | Previous Version | Graphics & Text | Print | Product List | Glossary On
Versions: 1 2 3 4 5 6 7 8 9 10 11 12 13 14 15 16 17 18 19 20 21 22 23 24 25 26 27 28 29 30 31 32 33 34 35 36 37 38 39 40 41 42 43 44 45 46 47 48 49 50
000
ASUS43 KMPX 260210
RWRMN
WEATHER ROUNDUP FOR MINNESOTA
NATIONAL WEATHER SERVICE TWIN CITIES/CHANHASSEN MN
900 PM CDT MON MAY 25 2015


NOTE: "FAIR" INDICATES FEW OR NO CLOUDS BELOW 12,000 FEET WITH NO
SIGNIFICANT WEATHER AND/OR OBSTRUCTIONS TO VISIBILITY. N/A MEANS
CURRENT SKY AND/OR WEATHER CONDITIONS ARE NOT AVAILABLE.

MNZ060>063-068>070-260300-
   Twin Cities Metro

CITY           SKY/WX    TMP DP  RH WIND       PRES   REMARKS
TWIN CITIES    PTCLDY    70  58  65 SW7       29.74R
ST PAUL        MOCLDY    68  58  70 SW5       29.74R
CRYSTAL        PTCLDY    67  57  70 S7        29.73R
BLAINE         PTCLDY    70  57  64 SW6       29.74R
LAKEVILLE      PTCLDY    66  59  77 CALM      29.75S
EDEN PRAIRIE   CLEAR     66  58  75 SW5       29.73R
SOUTH ST PAUL  MOCLDY    68  58  69 CALM      29.74R
LAKE ELMO      FAIR      66  59  77 SW5       29.75R
$$
MNZ001>005-007-008-013>017-022>024-027-028-260300-
   Northwest Minnesota

CITY           SKY/WX    TMP DP  RH WIND       PRES   REMARKS
BEMIDJI        CLOUDY    55  53  94 CALM      29.83R
HALLOCK        PTCLDY    72  48  43 S14       29.76R
ROSEAU         CLOUDY    66  54  63 S8        29.78R
WARROAD        CLOUDY    64  54  68 S6        29.78S
THIEF RVR FALL CLOUDY    64  48  55 S13       29.81S
CROOKSTON      MOCLDY    64  48  55 S8        29.81S
FOSSTON        CLOUDY    57  54  88 CALM      29.84S
DETROIT LAKES  CLOUDY    57  52  82 NE6       29.82F
MOORHEAD       CLOUDY    61  55  82 N3        29.83F
PARK RAPIDS    CLOUDY    57  53  86 NE10      29.79S
MAHNOMEN       CLOUDY    57  52  84 NE6       29.82F
$$
MNZ006-009>011-018-025>026-260300-
   North Central Minnesota

CITY           SKY/WX    TMP DP  RH WIND       PRES   REMARKS
BAUDETTE       CLOUDY    62  52  69 S8        29.80R
FLAG ISLAND    CLOUDY    59  55  88 S7        29.75S
INTL FALLS     CLOUDY    56  52  86 S3        29.80S
WASKISH        CLOUDY    57  52  82 CALM      29.82S
BIG FORK       LGT RAIN  55  54  94 CALM      29.81S
LONGVILLE      LGT RAIN  55  54  94 N5        29.78S
GRAND RAPIDS   CLOUDY    55  50  82 N8        29.79R
CRANE LAKE     LGT RAIN  54  54 100 CALM      29.81S
ORR            CLOUDY    55  52  88 CALM      29.78S
COOK           RAIN      55  54  94 CALM      29.80S
WALKER         DRIZZLE   55  52  92 NE3       29.80F
$$
MNZ012-019>021-037-260300-
   Northeast Minnesota

CITY           SKY/WX    TMP DP  RH WIND       PRES   REMARKS
DULUTH         LGT RAIN  50  48  93 NE5       29.75R FOG
ELY            RAIN      54  52  94 N3        29.78S
HIBBING        LGT RAIN  55  50  83 NE9       29.77S
EVELETH        LGT RAIN  54  52  94 NE8       29.77S
DULUTH HARBOR  DRIZZLE   45  45 100 E6        29.77R
TWO HARBORS    CLOUDY    54  48  82 CALM      29.74R
GRAND MARAIS     N/A     44  43  96 CALM      29.74R
G MARAIS ARPRT CLOUDY    52  48  87 N10       29.75S FOG
$$
MNZ029>031-032-039>041-046>048-054>057-064-260300-
   West Central Minnesota

CITY           SKY/WX    TMP DP  RH WIND       PRES   REMARKS
FERGUS FALLS   CLOUDY    59  52  77 NE7       29.80F
WHEATON        PTCLDY    55  52  88 N8        29.81F
MORRIS         CLOUDY    59  52  77 N17G23    29.76R
ALEXANDRIA     CLOUDY    57  52  83 NE15G25   29.76S
ELBOW LAKE     MOCLDY    57  51  79 N12G25    29.77F
WADENA         CLOUDY    55  52  88 N15       29.76F
GLENWOOD       MOCLDY    57  54  88 N16       29.74S
APPLETON       CLEAR     61  54  77 N14       29.76R
BENSON         CLOUDY    61  52  72 N13       29.75R
ORTONVILLE     PTCLDY    59  52  77 N20       29.78R
MADISON        CLEAR     61  54  77 N14       29.77R
WILLMAR        FAIR      63  59  88 W6        29.77R
$$
MNZ033>034-036-042>043-049>051-058-059-260300-
   Central Minnesota

CITY           SKY/WX    TMP DP  RH WIND       PRES   REMARKS
ST CLOUD       PTCLDY    62  56  80 SW8       29.71R
SAUK CENTRE    CLOUDY    58  54  88 N10G18    29.72R
PAYNESVILLE    CLOUDY    58  55  89 W9        29.74R
AITKIN         CLOUDY    55  50  82 N12       29.72S HAZE
PINE RIVER     CLOUDY    54  54 100 N12       29.80S
BRAINERD       CLOUDY    55  54  96 N13       29.73S FOG
STAPLES        CLOUDY    55  52  88 N8        29.74F
LONG PRAIRIE   CLOUDY    55  52  88 N10G18    29.73R
LITTLE FALLS   CLOUDY    59  54  82 N7        29.71S
LITCHFIELD     PTCLDY    64  59  82 W3        29.74R
BUFFALO        CLEAR     64  56  75 S7        29.74R
MAPLE LAKE     CLEAR     64  58  82 CALM      29.74R
$$
MNZ037-044-045-052-053-260300-
   East Central Minnesota

CITY           SKY/WX    TMP DP  RH WIND       PRES   REMARKS
PRINCETON      CLEAR     64  57  77 SW5       29.72R
MORA           CLOUDY    63  55  77 CALM      29.72S
CAMBRIDGE      PTCLDY    66  55  68 S8        29.70R
RUSH CITY      PTCLDY    64  56  77 CALM      29.71F
MOOSE LAKE     CLOUDY    52  52 100 NE6       29.72R
HINCKLEY       MOCLDY    61  59  94 CALM      29.71S
CLOQUET        DRIZZLE   48  46  93 CALM      29.75S
MCGREGOR       CLOUDY    55  54  94 N5        29.74S
$$
MNZ071>073-080-081-089-090-097-098-260300-
   Southwest Minnesota

CITY           SKY/WX    TMP DP  RH WIND       PRES   REMARKS
MONTEVIDEO     PTCLDY    61  55  82 N5        29.78R
GRANITE FALLS  MOCLDY    61  57  85 W7        29.79R
CANBY          CLOUDY    59  55  84 NW10      29.80R
MARSHALL       PTCLDY    59  52  77 NW9       29.78S
REDWOOD FALLS  PTCLDY    62  56  80 W8        29.76R
OLIVIA         PTCLDY    59  54  82 W8        29.76R
PIPESTONE      CLEAR     64  55  72 N7        29.78S
WINDOM         PTCLDY    64  57  77 NW6       29.77S
WORTHINGTON    PTCLDY    64  57  77 N9        29.77F
JACKSON        PTCLDY    64  61  88 CALM      29.77S
TRACY          CLOUDY    64  58  81 NW8       29.78S
SLAYTON        PTCLDY    62  59  90 CALM      29.79S
$$
MNZ065>067-074>077-082>085-091>093-260300-
   South Central Minnesota

CITY           SKY/WX    TMP DP  RH WIND       PRES   REMARKS
MANKATO        CLEAR     66  61  82 CALM      29.75S
NEW ULM        CLEAR     64  59  82 NW6       29.76R
ST JAMES       CLEAR     66  63  88 NW7       29.76S
FAIRMONT       PTCLDY    70  55  60 CALM      29.75S
GLENCOE        CLEAR     66  60  80 W3        29.75R
FARIBAULT      PTCLDY    63  63 100 CALM      29.76S
OWATONNA       PTCLDY    64  59  82 CALM      29.76F
WASECA         CLEAR     63  59  88 CALM      29.77S
ALBERT LEA     CLEAR     72  57  60 CALM      29.76F
$$
MNZ078>079-086>088-094>096-260300-
   Southeast Minnesota

CITY           SKY/WX    TMP DP  RH WIND       PRES   REMARKS
ROCHESTER      PTCLDY    67  59  75 S9        29.79R
RED WING       HVY RAIN  66  63  88 SW6       29.75R
STANTON        MOCLDY    65  61  86 CALM      29.75S
DODGE CENTER   PTCLDY    70  59  68 S9        29.77S
WINONA         CLEAR     70  63  78 CALM      29.78R
AUSTIN         CLEAR     68  57  68 S8        29.77F
PRESTON        PTCLDY    68  59  73 S6        29.80S
$$
ABBREVIATIONS USED IN REMARKS
   TC - TEMPERATURES IN CELSIUS
  WCI - WIND CHILL INDEX
   HX - HEAT INDEX
  VSB - VISIBILITY
$$



USA.gov is the U.S. government's official web portal to all federal, state and local government web resources and services.